[[{"header":{"parameterUnit":"m.s-1","parameterCategory":1,"la1":30.2991,"la2":30.254,"lo1":-89.0895,"lo2":-89.0444,"dy":0.0017,"dx":0.0017,"nx":28,"ny":28,"refTime":"2025-12-25T09:00:00:Z","depth":0,"parameterNumber":2,"parameterNumberName":"U-component_of_WINDS"},"data":[0,0,0,0,0,0,0,0,0,0,0,0,0,0,0,0,0,0,0,0,0,0,0,0,0,0,0,0,0,0,0,0,0,0,0,0,0,0,0,0,0,0,0,0,0,0,0,0,0,0,0,0,0,0,0,0,0,0,0.453,0.4531,0,0.4629,0.463,0.4631,0.4672,0.4671,0.4671,0.4671,0.4776,0.4779,0.4782,0,0,0,0,0,0,0,0,0,0,0,0,0,0.4378,0.438,0.4529,0.4531,0.4532,0.4629,0.463,0.4632,0.4672,0.4671,0.4671,0.4671,0.4775,0.4778,0.4782,0,0,0,0,0,0,0,0,0,0,0,0,0,0.4457,0.4381,0.4529,0.4564,0.4568,0.4629,0.463,0.4632,0.4672,0.4671,0.4671,0.4671,0.4774,0.4778,0.4782,0.4817,0,0,0.4796,0.4798,0,0,0,0,0,0,0,0,0.4453,0.4463,0.4557,0.4561,0.4566,0.4638,0.4615,0.4694,0.4672,0.4632,0.4671,0.4671,0.473,0.4738,0.4758,0.4822,0.4827,0.4797,0.4799,0.4801,0.4803,0,0,0,0,0,0,0,0.4447,0.4459,0.4569,0.4559,0.4564,0.4575,0.4586,0.463,0.4682,0.4636,0.4639,0.465,0.4733,0.4753,0.4761,0.4828,0.4796,0.48,0.4803,0.4805,0.4929,0.493,0,0,0,0,0,0,0.4435,0.4454,0.4566,0.4572,0.4507,0.4578,0.459,0.4615,0.4682,0.4692,0.465,0.4652,0.4746,0.4755,0.4764,0.4811,0.4801,0.4805,0.4808,0.4928,0.4929,0.493,0,0,0,0,0,0,0.4432,0.4445,0.4562,0.4514,0.453,0.4581,0.4608,0.4617,0.4638,0.4693,0.4702,0.4662,0.4746,0.4758,0.4804,0.4815,0.4807,0.4812,0.4928,0.4929,0.4929,0.4903,0,0,0,0,0,0,0.4428,0.4444,0.4456,0.4514,0.4532,0.4598,0.4609,0.4619,0.4645,0.4648,0.4706,0.4715,0.4747,0.4797,0.4809,0.4821,0.4815,0.4927,0.4928,0.4929,0.4903,0.4903,0.4903,0,0,0,0,0,0.4422,0.4445,0.4457,0.447,0.4549,0.4599,0.461,0.4644,0.4646,0.466,0.4696,0.4713,0.4812,0.4802,0.4815,0.4829,0.4926,0.4928,0.4929,0.4904,0.4903,0.4903,0,0,0,0,0,0,0.4388,0.4453,0.4467,0.4509,0.4548,0.4606,0.4624,0.4642,0.4683,0.4683,0.4726,0.4739,0.4782,0.481,0.4797,0.4867,0.4871,0.4875,0.4847,0.4847,0.4847,0.4839,0.4819,0,0,0,0,0,0.4385,0.442,0.4475,0.4507,0.4526,0.4572,0.4595,0.4618,0.4661,0.4678,0.4717,0.4758,0.4799,0.4825,0.4865,0.4908,0.4922,0.4925,0.4924,0.4924,0.4927,0.4953,0.4955,0.4934,0.4934,0.4934,0,0,0.438,0.442,0.4439,0.4502,0.4535,0.4571,0.4585,0.4622,0.465,0.4684,0.473,0.476,0.4809,0.4854,0.4876,0.488,0.4936,0.4926,0.4925,0.4928,0.4955,0.4957,0.4959,0.4935,0.4935,0.4935,0,0,0.439,0.4423,0.4454,0.4487,0.4536,0.4567,0.4574,0.463,0.4651,0.4698,0.4724,0.4759,0.4827,0.4862,0.4888,0.4913,0.4931,0.4925,0.4923,0.4949,0.4951,0.4952,0.4962,0.4965,0.4928,0.4927,0.4927,0,0.4377,0.4431,0.4467,0.4503,0.4531,0.4563,0.4595,0.4626,0.4687,0.4706,0.4708,0.4796,0.4832,0.4886,0.4892,0.4912,0.4923,0.4918,0.4947,0.4949,0.4951,0.4961,0.4965,0.4926,0.4927,0.4927,0.4927,0,0.4414,0.4451,0.4471,0.4528,0.4558,0.4592,0.4634,0.466,0.4682,0.4712,0.4761,0.4805,0.4855,0.487,0.4891,0.4928,0.4929,0.4939,0.4943,0.4952,0.4962,0.4966,0.4925,0.4925,0.4926,0.4926,0,0,0.4403,0.4481,0.4488,0.4515,0.4573,0.4603,0.464,0.4689,0.4711,0.4752,0.4785,0.4843,0.4853,0.4883,0.4909,0.4931,0.495,0.4939,0.4941,0.494,0.4994,0.4986,0.499,0.4962,0.4963,0.4964,0.499,0,0.4421,0.4486,0.4521,0.4572,0.4608,0.464,0.4672,0.4712,0.4742,0.4778,0.4812,0.4853,0.4863,0.4882,0.4905,0.4942,0.4961,0.4941,0.4994,0.4996,0.4981,0.4995,0.4986,0.5009,0.4994,0.4995,0.4995,0,0.4449,0.449,0.4544,0.46,0.4616,0.4644,0.4693,0.4726,0.4773,0.4794,0.4828,0.4854,0.4896,0.4897,0.4956,0.4941,0.4966,0.4987,0.4989,0.4995,0.4996,0.5002,0.5017,0.502,0.5002,0.5001,0.5001,0,0.4437,0.4505,0.4547,0.4569,0.4635,0.4654,0.4683,0.4729,0.4757,0.48,0.4819,0.4866,0.4892,0.4929,0.4968,0.4965,0.5023,0.5027,0.5042,0.5041,0.5053,0.5051,0.5072,0.5068,0.5068,0.5068,0.5068,0,0.4452,0.4485,0.4542,0.4568,0.4606,0.4647,0.4683,0.4715,0.4756,0.479,0.4821,0.4852,0.4901,0.4939,0.497,0.5015,0.5026,0.5045,0.5053,0.5042,0.504,0.5059,0.5058,0.5069,0.5069,0.5069,0.5068,0,0.4444,0.4484,0.4532,0.4591,0.4606,0.4632,0.4683,0.471,0.4742,0.4784,0.4797,0.4848,0.4894,0.4937,0.4999,0.5019,0.5065,0.5075,0.5049,0.5053,0.5066,0.5064,0.5099,0.5106,0.5097,0.5097,0.5097,0,0.4451,0.4477,0.4539,0.4563,0.4591,0.463,0.4658,0.47,0.4729,0.4785,0.4806,0.4854,0.4895,0.4968,0.5012,0.506,0.5071,0.508,0.5079,0.5068,0.5072,0.507,0.5073,0.508,0.5079,0.5079,0.5079,0,0.446,0.4479,0.4518,0.4565,0.4598,0.4637,0.4677,0.4696,0.4746,0.4777,0.4824,0.4856,0.4919,0.4968,0.5021,0.5052,0.5074,0.508,0.5086,0.5075,0.5059,0.5068,0.5047,0.5078,0.5078,0.5079,0.5079,0.5079,0.4461,0.4486,0.4533,0.4576,0.4611,0.4648,0.4677,0.4713,0.4753,0.4807,0.483,0.4878,0.4927,0.5,0.5032,0.5071,0.5076,0.5084,0.5087,0.5088,0.5086,0.5053,0.5081,0.5081,0.5081,0.5082,0.5082,0,0.4472,0.4504,0.4544,0.4599,0.4633,0.4651,0.4697,0.4725,0.4767,0.481,0.4849,0.4905,0.4953,0.5,0.5051,0.5074,0.5085,0.5086,0.5084,0.5091,0.5079,0.5069,0.5075,0.5075,0.5075,0.5075,0.5075,0.5075,0.4481,0.4525,0.4549,0.4611,0.4644,0.4691,0.4715,0.4751,0.4785,0.4845,0.4885,0.4915,0.4961,0.5016,0.5061,0.5074,0.5091,0.5088,0.5104,0.5092,0.5092,0.5092,0.5083,0.5092,0.5092,0.5113,0.5114,0.5114]},{"header":{"parameterUnit":"m.s-1","parameterCategory":1,"la1":30.2991,"la2":30.254,"lo1":-89.0895,"lo2":-89.0444,"dy":0.0017,"dx":0.0017,"nx":28,"ny":28,"refTime":"2025-12-25T09:00:00:Z","depth":0,"parameterNumber":3,"parameterNumberName":"V-component_of_WINDS"},"data":[0,0,0,0,0,0,0,0,0,0,0,0,0,0,0,0,0,0,0,0,0,0,0,0,0,0,0,0,0,0,0,0,0,0,0,0,0,0,0,0,0,0,0,0,0,0,0,0,0,0,0,0,0,0,0,0,0,0,0.8977,0.8977,0,0.8943,0.8942,0.8942,0.8933,0.8933,0.8934,0.8934,0.8895,0.8894,0.8892,0,0,0,0,0,0,0,0,0,0,0,0,0,0.9033,0.9032,0.8977,0.8977,0.8977,0.8943,0.8942,0.8942,0.8933,0.8933,0.8934,0.8934,0.8895,0.8894,0.8892,0,0,0,0,0,0,0,0,0,0,0,0,0,0.9005,0.9032,0.8977,0.8968,0.8967,0.8943,0.8942,0.8942,0.8933,0.8933,0.8934,0.8934,0.8896,0.8894,0.8892,0.8873,0,0,0.8886,0.8886,0,0,0,0,0,0,0,0,0.9006,0.9003,0.897,0.8969,0.8968,0.8943,0.8948,0.8919,0.8933,0.8946,0.8934,0.8934,0.891,0.8907,0.89,0.8872,0.887,0.8886,0.8885,0.8884,0.8884,0,0,0,0,0,0,0,0.9008,0.9004,0.8964,0.897,0.8968,0.8965,0.8961,0.8942,0.8926,0.8945,0.8944,0.894,0.891,0.8902,0.8899,0.8869,0.8886,0.8885,0.8883,0.8883,0.8823,0.8823,0,0,0,0,0,0,0.9012,0.9006,0.8965,0.8962,0.8988,0.8963,0.8959,0.895,0.8927,0.8923,0.894,0.894,0.8905,0.8901,0.8897,0.8873,0.8884,0.8883,0.8881,0.8824,0.8823,0.8822,0,0,0,0,0,0,0.9013,0.9009,0.8966,0.8984,0.8978,0.8962,0.8952,0.8949,0.8941,0.8923,0.892,0.8935,0.8905,0.89,0.888,0.8872,0.8882,0.888,0.8824,0.8823,0.8823,0.8826,0,0,0,0,0,0,0.9015,0.9009,0.9003,0.8984,0.8977,0.895,0.8951,0.8948,0.8939,0.8938,0.8917,0.8914,0.8905,0.8882,0.8878,0.887,0.8878,0.8825,0.8824,0.8823,0.8826,0.8825,0.8824,0,0,0,0,0,0.9017,0.9004,0.9002,0.8998,0.8969,0.8949,0.8945,0.8936,0.8938,0.8931,0.8919,0.8915,0.8874,0.888,0.8875,0.8866,0.8825,0.8824,0.8823,0.8826,0.8825,0.8824,0,0,0,0,0,0,0.9022,0.9002,0.8999,0.898,0.8967,0.8948,0.8939,0.8935,0.8919,0.892,0.8907,0.8902,0.8882,0.8872,0.888,0.8846,0.8849,0.8847,0.8854,0.8852,0.8852,0.8854,0.8877,0,0,0,0,0,0.9021,0.9007,0.899,0.8975,0.8968,0.8955,0.8946,0.8939,0.8924,0.8918,0.8905,0.8889,0.8873,0.8862,0.8846,0.8825,0.8819,0.8816,0.8815,0.8814,0.8812,0.8799,0.8797,0.8819,0.8819,0.8819,0,0,0.9018,0.9006,0.8998,0.8976,0.8964,0.895,0.895,0.8935,0.8923,0.8915,0.8895,0.8885,0.8867,0.8846,0.8836,0.8837,0.8805,0.8813,0.8813,0.8811,0.8798,0.8796,0.8794,0.8818,0.8819,0.8819,0,0,0.9006,0.8995,0.8981,0.897,0.8953,0.8944,0.8941,0.8923,0.8916,0.8896,0.889,0.8875,0.8847,0.8834,0.8824,0.8807,0.8802,0.8802,0.8797,0.8784,0.8782,0.8781,0.8774,0.8771,0.88,0.88,0.88,0,0.9004,0.8983,0.8974,0.8959,0.8949,0.8943,0.8928,0.8917,0.8895,0.8888,0.889,0.8854,0.8841,0.8817,0.8813,0.8805,0.8799,0.8804,0.8784,0.8782,0.878,0.8773,0.8771,0.88,0.88,0.88,0.88,0,0.8982,0.8967,0.8957,0.8938,0.8927,0.8912,0.8899,0.8889,0.8884,0.8874,0.8853,0.8838,0.8818,0.8812,0.8806,0.8786,0.8787,0.8786,0.8789,0.8778,0.8771,0.8769,0.88,0.88,0.88,0.88,0,0,0.8971,0.8947,0.8943,0.8934,0.8915,0.8903,0.8887,0.8869,0.886,0.8845,0.883,0.8807,0.8806,0.8795,0.8787,0.8776,0.8762,0.8777,0.8776,0.8774,0.8738,0.8738,0.8735,0.876,0.8759,0.8759,0.8739,0,0.8956,0.8929,0.892,0.8897,0.8882,0.8876,0.8862,0.8848,0.8839,0.8824,0.8813,0.8796,0.8797,0.879,0.8779,0.8766,0.8755,0.8768,0.8745,0.8744,0.8749,0.8732,0.8732,0.8715,0.8737,0.8736,0.8736,0,0.8934,0.892,0.8896,0.8878,0.8872,0.8859,0.8842,0.8828,0.8812,0.8806,0.8793,0.8786,0.8768,0.8773,0.8747,0.8756,0.8746,0.8738,0.8737,0.8734,0.8739,0.8727,0.8709,0.8706,0.8732,0.8732,0.8732,0,0.8928,0.8903,0.8885,0.8877,0.8856,0.8847,0.8838,0.8822,0.8812,0.8796,0.8788,0.877,0.876,0.8746,0.8734,0.8738,0.8709,0.8712,0.8702,0.8702,0.8695,0.8696,0.8674,0.869,0.869,0.869,0.869,0,0.8911,0.8896,0.8881,0.887,0.8853,0.8843,0.8826,0.8816,0.8802,0.8787,0.878,0.8767,0.8753,0.8737,0.8728,0.8707,0.8703,0.8696,0.8694,0.8696,0.8697,0.8689,0.869,0.869,0.869,0.869,0.869,0,0.8901,0.8891,0.887,0.8853,0.8848,0.8836,0.882,0.8808,0.8798,0.878,0.8775,0.876,0.8741,0.8728,0.8704,0.8697,0.8675,0.8673,0.8681,0.8679,0.8669,0.867,0.8641,0.8636,0.8657,0.8656,0.8656,0,0.8891,0.888,0.8861,0.8851,0.8842,0.8827,0.8816,0.8805,0.8794,0.8775,0.8765,0.8746,0.873,0.87,0.8686,0.8667,0.8664,0.8655,0.8661,0.8663,0.8662,0.8663,0.8661,0.8653,0.8653,0.8653,0.8653,0,0.8874,0.8869,0.8855,0.8838,0.8826,0.8812,0.8798,0.879,0.8777,0.8764,0.8746,0.8733,0.8709,0.8689,0.8669,0.8658,0.8653,0.8652,0.8648,0.865,0.8655,0.8651,0.8677,0.8652,0.8652,0.8652,0.8652,0.8652,0.8863,0.8852,0.8837,0.882,0.8809,0.8796,0.8784,0.8773,0.8758,0.8737,0.8732,0.8712,0.8695,0.8667,0.8656,0.8639,0.864,0.8635,0.8633,0.8632,0.8632,0.8658,0.8635,0.8635,0.8635,0.8635,0.8635,0,0.8844,0.8834,0.8819,0.88,0.8787,0.8785,0.8769,0.8758,0.8741,0.8726,0.8711,0.8689,0.867,0.8654,0.8634,0.8624,0.8621,0.8619,0.8619,0.8616,0.8633,0.8637,0.8622,0.8622,0.8622,0.8622,0.8622,0.8622,0.8833,0.8814,0.8808,0.8783,0.8773,0.8754,0.8745,0.8733,0.8721,0.8697,0.8681,0.8672,0.8656,0.8635,0.8617,0.8613,0.8605,0.8604,0.8599,0.8614,0.8616,0.8617,0.8621,0.8602,0.8602,0.8584,0.8584,0.8584]}]]